Weather History for KBBD - February, 2013

Change the Weather History Date:

Saturday, February 9, 2013

  Actual Average (KJCT) Record (KJCT)
Temperature  
Mean Temperature 56 °F -  
Max Temperature 64 °F 60 °F 84 °F (1999)
Min Temperature 48 °F 35 °F 17 °F (2011)
Degree Days  
Heating Degree Days 9    
Growing Degree Days 6 (Base 50)    
Moisture  
Dew Point 49 °F    
Average Humidity 75    
Maximum Humidity 94    
Minimum Humidity 35    
Precipitation  
Precipitation 0.00 in - - ()
Sea Level Pressure  
Sea Level Pressure 29.88 in    
Wind  
Wind Speed 12 mph (SSE)    
Max Wind Speed 18 mph    
Max Gust Speed -    
Visibility 10 miles    
Events      
Averages and records for this station are not official NWS values.
T = Trace of Precipitation, MM = Missing Value Source: NWS Daily Summary

Daily Weather History Graph

Daily Weather History Graph

Search for Another Location

Airport or City:

Trip Planner

Search our weather history database for the weather conditions in past years. The results will help you decide how hot, cold, wet, or windy it might be!

Date:

Astronomy

Feb. 09, 2013 Rise Set
Actual Time 7:23 AM CST 6:19 PM CST
Civil Twilight 6:58 AM CST 6:44 PM CST
Nautical Twilight 6:29 AM CST 7:13 PM CST
Astronomical Twilight 6:01 AM CST 7:41 PM CST
Moon 6:37 AM CST (2/9) 6:02 PM CST (2/9)
Length of Visible Light 11h 46m
Length of Day
10h 56m
Waning Crescent, 0% of the Moon is Illuminated
Feb 9
Waning Crescent
Feb 10
New
Feb 17
First Quarter
Feb 25
Full
Mar 4
Last Quarter

Hourly Weather History & Observations

Time (CST) Temp. Dew Point Humidity Pressure Visibility Wind Dir Wind Speed Gust Speed Precip Events Conditions
12:55 AM 51.8 °F 24.8 °F 35% 30.04 in 10.0 mi ESE 8.1 mph - N/A   Clear
1:15 AM 51.8 °F 24.8 °F 35% 30.04 in 10.0 mi SE 8.1 mph - N/A   Clear
1:35 AM 51.8 °F 24.8 °F 35% 30.06 in 10.0 mi SE 8.1 mph - N/A   Clear
1:55 AM 50.0 °F 26.6 °F 40% 30.06 in 10.0 mi SE 5.8 mph - N/A   Clear
2:15 AM 50.0 °F 26.6 °F 40% 30.06 in 10.0 mi SSE 8.1 mph - N/A   Scattered Clouds
2:55 AM 48.2 °F 28.4 °F 46% 30.03 in 10.0 mi SE 9.2 mph - N/A   Clear
3:15 AM 50.0 °F 28.4 °F 43% 30.04 in 10.0 mi SE 10.4 mph - N/A   Clear
3:35 AM 50.0 °F 30.2 °F 47% 30.01 in 10.0 mi SE 6.9 mph - N/A   Clear
3:55 AM 51.8 °F 32.0 °F 47% 30.03 in 10.0 mi SSE 9.2 mph - N/A   Clear
4:15 AM 51.8 °F 33.8 °F 50% 30.01 in 10.0 mi SSE 12.7 mph - N/A   Clear
4:35 AM 51.8 °F 33.8 °F 50% 30.00 in 10.0 mi SSE 13.8 mph - N/A   Clear
4:55 AM 51.8 °F 35.6 °F 54% 29.99 in 10.0 mi SSE 16.1 mph - N/A   Partly Cloudy
5:15 AM 51.8 °F 37.4 °F 58% 29.99 in 10.0 mi SSE 12.7 mph - N/A   Mostly Cloudy
5:35 AM 51.8 °F 37.4 °F 58% 29.99 in 10.0 mi SE 16.1 mph - N/A   Partly Cloudy
5:55 AM 51.8 °F 39.2 °F 62% 29.99 in 10.0 mi SSE 13.8 mph - N/A   Mostly Cloudy
6:15 AM 51.8 °F 39.2 °F 62% 29.99 in 10.0 mi SSE 13.8 mph - N/A   Overcast
6:35 AM 51.8 °F 39.2 °F 62% 29.99 in 10.0 mi SE 16.1 mph - N/A   Overcast
6:55 AM 51.8 °F 42.8 °F 71% 29.98 in 10.0 mi SE 12.7 mph - N/A   Overcast
7:15 AM 51.8 °F 44.6 °F 76% 29.98 in 10.0 mi SE 12.7 mph - N/A   Overcast
7:35 AM 51.8 °F 44.6 °F 76% 29.98 in 10.0 mi SE 16.1 mph - N/A   Overcast
7:55 AM 51.8 °F 46.4 °F 82% 29.99 in 10.0 mi SSE 13.8 mph - N/A   Overcast
8:15 AM 51.8 °F 46.4 °F 82% 29.98 in 10.0 mi SE 11.5 mph - N/A   Overcast
8:35 AM 51.8 °F 46.4 °F 82% 29.97 in 10.0 mi SE 15.0 mph - N/A   Overcast
8:55 AM 53.6 °F 48.2 °F 82% 29.97 in 10.0 mi SE 15.0 mph - N/A   Overcast
9:15 AM 53.6 °F 48.2 °F 82% 29.96 in 10.0 mi SE 15.0 mph - N/A   Overcast
9:35 AM 53.6 °F 48.2 °F 82% 29.96 in 10.0 mi SE 15.0 mph - N/A   Overcast
9:55 AM 53.6 °F 48.2 °F 82% 29.95 in 10.0 mi SE 12.7 mph - N/A   Overcast
10:15 AM 55.4 °F 48.2 °F 77% 29.94 in 10.0 mi SSE 15.0 mph - N/A   Overcast
10:35 AM 55.4 °F 48.2 °F 77% 29.94 in 10.0 mi SSE 17.3 mph - N/A   Overcast
10:55 AM 55.4 °F 48.2 °F 77% 29.95 in 10.0 mi SSE 17.3 mph - N/A   Overcast
11:15 AM 55.4 °F 50.0 °F 82% 29.94 in 10.0 mi SSE 18.4 mph - N/A   Overcast
11:35 AM 57.2 °F 50.0 °F 77% 29.93 in 10.0 mi SSE 15.0 mph - N/A   Overcast
11:55 AM 57.2 °F 51.8 °F 82% 29.93 in 10.0 mi SSE 17.3 mph - N/A   Overcast
12:15 PM 57.2 °F 51.8 °F 82% 29.90 in 10.0 mi SSE 15.0 mph - N/A   Overcast
12:35 PM 57.2 °F 51.8 °F 82% 29.89 in 10.0 mi SSE 17.3 mph - N/A   Overcast
12:55 PM 57.2 °F 53.6 °F 88% 29.87 in 10.0 mi SSE 17.3 mph - N/A   Overcast
1:15 PM 57.2 °F 53.6 °F 88% 29.86 in 10.0 mi SSE 17.3 mph - N/A   Overcast
1:35 PM 57.2 °F 53.6 °F 88% 29.84 in 10.0 mi SSE 16.1 mph - N/A   Overcast
1:55 PM 57.2 °F 53.6 °F 88% 29.83 in 10.0 mi SSE 16.1 mph - N/A   Overcast
2:15 PM 59.0 °F 55.4 °F 88% 29.83 in 10.0 mi SSE 13.8 mph - N/A   Overcast
2:35 PM 59.0 °F 55.4 °F 88% 29.81 in 10.0 mi SSE 17.3 mph - N/A   Overcast
2:55 PM 59.0 °F 55.4 °F 88% 29.79 in 10.0 mi SSE 15.0 mph - N/A   Overcast
3:15 PM 60.8 °F 55.4 °F 82% 29.78 in 10.0 mi SSE 15.0 mph - N/A   Overcast
3:35 PM 60.8 °F 55.4 °F 82% 29.78 in 10.0 mi SSE 15.0 mph - N/A   Overcast
3:55 PM 62.6 °F 57.2 °F 82% 29.77 in 10.0 mi SSE 13.8 mph - N/A   Overcast
4:15 PM 62.6 °F 57.2 °F 82% 29.76 in 10.0 mi SSE 13.8 mph - N/A   Overcast
4:35 PM 62.6 °F 57.2 °F 82% 29.76 in 10.0 mi SSE 11.5 mph - N/A   Overcast
4:55 PM 62.6 °F 57.2 °F 82% 29.75 in 10.0 mi SSE 17.3 mph - N/A   Overcast
5:15 PM 62.6 °F 57.2 °F 82% 29.75 in 10.0 mi SSE 16.1 mph - N/A   Overcast
5:35 PM 62.6 °F 57.2 °F 82% 29.75 in 10.0 mi SSE 11.5 mph - N/A   Overcast
5:55 PM 62.6 °F 57.2 °F 82% 29.76 in 10.0 mi SSE 11.5 mph - N/A   Overcast
6:15 PM 62.6 °F 57.2 °F 82% 29.76 in 10.0 mi SSE 9.2 mph - N/A   Overcast
6:35 PM 64.4 °F 57.2 °F 77% 29.77 in 10.0 mi SSE 10.4 mph - N/A   Overcast
6:55 PM 64.4 °F 57.2 °F 77% 29.77 in 10.0 mi SSE 9.2 mph - N/A   Overcast
7:35 PM 64.4 °F 57.2 °F 77% 29.76 in 10.0 mi SSE 9.2 mph - N/A   Overcast
7:55 PM 64.4 °F 57.2 °F 77% 29.76 in 10.0 mi SSE 10.4 mph - N/A   Overcast
8:15 PM 64.4 °F 59.0 °F 83% 29.76 in 10.0 mi SSE 9.2 mph - N/A   Overcast
8:35 PM 62.6 °F 59.0 °F 88% 29.75 in 10.0 mi SSE 9.2 mph - N/A   Overcast
8:55 PM 62.6 °F 60.8 °F 94% 29.76 in 10.0 mi SSE 6.9 mph - N/A   Overcast
9:15 PM 64.4 °F 60.8 °F 88% 29.76 in 10.0 mi SSE 9.2 mph - N/A   Overcast
9:35 PM 64.4 °F 60.8 °F 88% 29.77 in 10.0 mi SSE 8.1 mph - N/A   Overcast
9:55 PM 64.4 °F 60.8 °F 88% 29.76 in 10.0 mi SSE 8.1 mph - N/A   Overcast
10:15 PM 64.4 °F 60.8 °F 88% 29.76 in 10.0 mi SSE 10.4 mph - N/A   Overcast
10:35 PM 64.4 °F 60.8 °F 88% 29.74 in 10.0 mi SSE 11.5 mph - N/A   Scattered Clouds
10:55 PM 64.4 °F 60.8 °F 88% 29.74 in 10.0 mi SSE 11.5 mph - N/A   Mostly Cloudy
11:15 PM 64.4 °F 62.6 °F 94% 29.73 in 10.0 mi SSE 13.8 mph - N/A   Mostly Cloudy
11:35 PM 64.4 °F 62.6 °F 94% 29.73 in 10.0 mi SSE 16.1 mph - N/A   Mostly Cloudy
11:55 PM 64.4 °F 62.6 °F 94% 29.72 in 10.0 mi SSE 13.8 mph - N/A   Scattered Clouds